Powrót do katalogu

STARLINK-32259

AktywnyŁącznośćVLEO
NORAD 60937·PAYLOAD·🇺🇸 United States

Wystrzelony Aug 31, 2024 z Vandenberg Space Force Base

Loading…

Następne Przeloty (najbliższe 24 godziny)

TLE

ŚwieżeSource: CelesTrak SupGP

Epoka: Sep 15, 2026, 03:25 UTC

1 60937C 24155P   26258.14284722  .00060236  00000+0  17792-2 0  2587
2 60937  53.1586 327.1007 0001156  95.3966 254.6925 15.34368450    19

Śledź STARLINK-32259 w czasie rzeczywistym z AllMySat

Download on the App Store